FW7499 Weather Reports


time (UTC)temp
F
wind
direction
speed
knots
gust
knots
rain 1hr
in
rain 24hr
in
rain mn
in
humidity
%
barometer
mb
20260509233505 68 26 0.0 3.5 0.00 0.00 0.00 46 1011.9
20260509233030 68 323 0.0 3.5 0.00 0.00 0.00 46 1011.8
20260509232503 69 350 0.9 4.3 0.00 0.00 0.00 46 1011.8
20260509232008 68 309 1.7 4.3 0.00 0.00 0.00 46 1011.8
20260509231514 69 301 1.7 5.2 0.00 0.00 0.00 46 1011.8
20260509231010 69 342 0.0 5.2 0.00 0.00 0.00 46 1011.8
20260509230508 69 350 1.7 4.3 0.00 0.00 0.00 46 1011.8
20260509230020 69 351 1.7 5.2 0.00 0.00 0.00 46 1011.8
20260509225508 69 331 0.9 6.1 0.00 0.00 0.00 46 1011.7
20260509225005 69 318 0.9 6.1 0.00 0.00 0.00 46 1011.8
20260509224505 69 280 2.6 7.0 0.00 0.00 0.00 46 1011.7
20260509224002 70 338 3.5 7.0 0.00 0.00 0.00 46 1011.6
20260509223507 70 312 2.6 7.8 0.00 0.00 0.00 47 1011.7
20260509223004 70 29 0.9 7.8 0.00 0.00 0.00 45 1011.6
20260509222502 71 360 0.9 9.6 0.00 0.00 0.00 45 1011.5
20260509222003 70 235 2.6 9.6 0.00 0.00 0.00 47 1011.5
20260509221503 70 287 3.5 8.7 0.00 0.00 0.00 47 1011.4
20260509221003 70 302 2.6 8.7 0.00 0.00 0.00 46 1011.4
20260509220503 70 302 2.6 8.7 0.00 0.00 0.00 47 1011.4
20260509220016 70 302 3.5 8.7 0.00 0.00 0.00 46 1011.3
20260509215504 70 311 2.6 8.7 0.00 0.00 0.00 48 1011.2
20260509215001 70 342 1.7 7.0 0.00 0.00 0.00 46 1011.1
20260509214501 69 345 1.7 6.1 0.00 0.00 0.00 47 1011.1
20260509214002 69 36 0.9 5.2 0.00 0.00 0.00 46 1011.0
20260509213503 69 5 2.6 8.7 0.00 0.00 0.00 45 1011.1
20260509213007 69 314 4.3 8.7 0.00 0.00 0.00 45 1011.0
20260509212502 69 360 3.5 9.6 0.00 0.00 0.00 44 1011.0
20260509212003 70 314 4.3 9.6 0.00 0.00 0.00 43 1010.9
20260509211505 71 332 4.3 12.2 0.00 0.00 0.00 44 1010.8
20260509211003 71 332 1.7 12.2 0.00 0.00 0.00 43 1010.8
20260509210504 71 342 5.2 12.2 0.00 0.00 0.00 42 1010.7
20260509210017 71 360 1.7 9.6 0.00 0.00 0.00 41 1010.6
20260509205503 71 318 4.3 11.3 0.00 0.00 0.00 40 1010.6
20260509205003 72 325 5.2 12.2 0.00 0.00 0.00 39 1010.6
20260509204505 72 325 4.3 12.2 0.00 0.00 0.00 39 1010.5
20260509204002 72 301 4.3 13.9 0.00 0.00 0.00 42 1010.5
20260509203501 72 346 4.3 13.9 0.00 0.00 0.00 41 1010.2
20260509203003 73 329 5.2 13.9 0.00 0.00 0.00 41 1010.1
20260509202503 74 22 3.5 11.3 0.00 0.00 0.00 40 1009.9
20260509202006 76 347 4.3 10.4 0.00 0.00 0.00 37 1009.8
20260509201510 76 329 3.5 9.6 0.00 0.00 0.00 37 1009.7
20260509201009 78 311 4.3 9.6 0.00 0.00 0.00 34 1009.6
20260509200508 77 315 2.6 8.7 0.00 0.00 0.00 33 1009.5
20260509200013 76 291 3.5 7.8 0.00 0.00 0.00 33 1009.5
20260509195511 77 23 1.7 7.0 0.00 0.00 0.00 33 1009.4
20260509195003 77 318 2.6 7.8 0.00 0.00 0.00 30 1009.3
20260509194522 77 332 2.6 8.7 0.00 0.00 0.00 31 1009.2
20260509194004 76 313 2.6 8.7 0.00 0.00 0.00 36 1009.1
20260509193514 75 355 1.7 5.2 0.00 0.00 0.00 33 1009.1
20260509193007 75 343 0.9 5.2 0.00 0.00 0.00 31 1009.0
20260509192502 76 346 0.9 5.2 0.00 0.00 0.00 32 1009.0
20260509192002 75 338 0.9 5.2 0.00 0.00 0.00 32 1009.0
20260509191503 76 80 0.0 7.0 0.00 0.00 0.00 29 1008.9
20260509191006 77 24 3.5 7.8 0.00 0.00 0.00 30 1008.9
20260509190503 77 327 3.5 7.8 0.00 0.00 0.00 30 1009.0
20260509190012 78 344 0.9 4.3 0.00 0.00 0.00 29 1008.9
20260509185503 78 326 1.7 4.3 0.00 0.00 0.00 34 1008.8
20260509185010 77 301 0.9 5.2 0.00 0.00 0.00 32 1008.9
20260509184507 77 348 0.9 7.8 0.00 0.00 0.00 33 1008.9
20260509184009 76 344 2.6 7.8 0.00 0.00 0.00 29 1009.0
20260509183507 78 352 1.7 6.1 0.00 0.00 0.00 30 1008.9
20260509183004 78 348 1.7 4.3 0.00 0.00 0.00 31 1008.8
20260509182505 78 5 1.7 6.1 0.00 0.00 0.00 28 1008.9
20260509182006 77 302 2.6 7.0 0.00 0.00 0.00 30 1008.9
20260509181513 77 345 1.7 7.0 0.00 0.00 0.00 31 1008.8
20260509181006 77 321 2.6 7.0 0.00 0.00 0.00 34 1008.9
20260509180503 76 321 1.7 7.8 0.00 0.00 0.00 32 1008.8
20260509180008 75 309 1.7 7.8 0.00 0.00 0.00 33 1008.8
20260509175504 75 338 2.6 7.8 0.00 0.00 0.00 28 1008.8
20260509175004 75 9 1.7 7.0 0.00 0.00 0.00 35 1008.8
20260509174505 75 340 0.9 5.2 0.00 0.00 0.00 31 1008.8
20260509174003 75 338 1.7 5.2 0.00 0.00 0.00 35 1008.9
20260509173507 75 74 0.0 4.3 0.00 0.00 0.00 34 1008.9
20260509173018 75 19 0.0 2.6 0.00 0.00 0.00 31 1008.9
20260509172503 75 59 0.9 4.3 0.00 0.00 0.00 35 1009.0
20260509172006 75 314 0.9 7.0 0.00 0.00 0.00 38 1009.1
20260509171515 74 323 2.6 7.0 0.00 0.00 0.00 38 1009.1
20260509171004 74 320 1.7 7.0 0.00 0.00 0.00 31 1009.1
20260509170507 74 333 1.7 4.3 0.00 0.00 0.00 32 1009.2
20260509170020 74 338 0.9 3.5 0.00 0.00 0.00 34 1009.2
20260509165502 73 319 0.9 7.0 0.00 0.00 0.00 31 1009.1
20260509165007 73 331 1.7 7.0 0.00 0.00 0.00 37 1009.1
20260509164511 73 344 2.6 5.2 0.00 0.00 0.00 33 1009.1
20260509164004 73 296 1.7 6.1 0.00 0.00 0.00 36 1009.1
20260509163505 73 305 1.7 6.1 0.00 0.00 0.00 37 1009.0
20260509163012 72 306 2.6 6.1 0.00 0.00 0.00 36 1009.0
20260509162508 72 317 1.7 7.8 0.00 0.00 0.00 35 1008.9
20260509162007 71 342 3.5 7.8 0.00 0.00 0.00 34 1009.1
20260509161519 71 349 0.9 7.0 0.00 0.00 0.00 34 1008.9
20260509161009 71 5 2.6 8.7 0.00 0.00 0.00 35 1009.0
20260509160507 71 301 2.6 8.7 0.00 0.00 0.00 35 1008.9
20260509160023 72 341 2.6 7.0 0.00 0.00 0.00 38 1009.0
20260509155509 71 326 0.9 4.3 0.00 0.00 0.00 39 1009.0
20260509155008 71 340 1.7 7.0 0.00 0.00 0.00 38 1009.0
20260509154523 70 13 1.7 10.4 0.00 0.00 0.00 39 1009.2
20260509154008 70 341 4.3 10.4 0.00 0.00 0.00 38 1009.3
20260509153504 70 341 4.3 7.8 0.00 0.00 0.00 37 1009.3
20260509153015 70 306 3.5 7.8 0.00 0.00 0.00 38 1009.1
20260509152504 70 334 0.0 9.6 0.00 0.00 0.00 40 1009.1
20260509152009 70 333 0.9 9.6 0.00 0.00 0.00 39 1009.1
20260509151519 70 342 1.7 7.0 0.00 0.00 0.00 40 1009.1
20260509151007 69 337 2.6 7.0 0.00 0.00 0.00 42 1009.1
20260509150508 68 360 3.5 11.3 0.00 0.00 0.00 42 1009.2
20260509150013 68 286 3.5 11.3 0.00 0.00 0.00 41 1008.8
20260509145509 70 355 3.5 8.7 0.00 0.00 0.00 40 1009.0
20260509145010 69 306 0.9 3.5 0.00 0.00 0.00 36 1008.1
20260509144513 69 355 0.0 3.5 0.00 0.00 0.00 40 1007.9
20260509144007 67 234 0.0 3.5 0.00 0.00 0.00 40 1007.9
20260509143509 66 297 0.9 7.0 0.00 0.00 0.00 43 1007.9
20260509143012 65 343 0.0 7.0 0.00 0.00 0.00 42 1008.0
20260509142503 65 5 0.0 6.1 0.00 0.00 0.00 44 1008.1
20260509142009 66 219 0.0 6.1 0.00 0.00 0.00 43 1008.1
20260509141530 65 285 0.9 4.3 0.00 0.00 0.00 45 1008.1
20260509141008 64 292 0.0 3.5 0.00 0.00 0.00 46 1008.1
20260509140505 65 193 0.0 1.7 0.00 0.00 0.00 45 1008.0
20260509140021 64 332 0.0 1.7 0.00 0.00 0.00 50 1008.0
20260509135507 63 332 0.0 3.5 0.00 0.00 0.00 51 1008.1
20260509135011 62 243 0.0 3.5 0.00 0.00 0.00 52 1008.1
20260509134504 60 260 0.0 1.7 0.00 0.00 0.00 54 1008.1
20260509134003 59 306 0.0 1.7 0.00 0.00 0.00 53 1008.0
20260509133503 59 320 0.0 0.9 0.00 0.00 0.00 53 1008.0
20260509133003 59 320 0.0 0.9 0.00 0.00 0.00 56 1008.0
20260509132505 59 319 0.0 1.7 0.00 0.00 0.00 61 1007.9
20260509132002 56 319 0.0 1.7 0.00 0.00 0.00 68 1007.9
20260509131508 55 321 0.0 0.0 0.00 0.00 0.00 74 1008.0
20260509131005 54 321 0.0 0.0 0.00 0.00 0.00 78 1008.0
20260509130504 54 321 0.0 0.0 0.00 0.00 0.00 78 1008.0
20260509130016 53 321 0.0 0.9 0.00 0.00 0.00 78 1007.9
20260509125509 52 321 0.0 0.9 0.00 0.00 0.00 80 1007.9
20260509125005 51 321 0.0 0.9 0.00 0.00 0.00 83 1007.9
20260509124504 50 321 0.0 0.9 0.00 0.00 0.00 84 1008.0
20260509124003 50 321 0.0 0.9 0.00 0.00 0.00 81 1008.0
20260509123503 49 321 0.0 0.9 0.00 0.00 0.00 83 1008.0
20260509123007 48 321 0.0 0.0 0.00 0.00 0.00 84 1007.9
20260509122503 48 321 0.0 0.0 0.00 0.00 0.00 81 1007.8
20260509122003 48 321 0.0 0.9 0.00 0.00 0.00 78 1007.9
20260509121505 48 321 0.0 0.9 0.00 0.00 0.00 77 1007.9
20260509121003 47 321 0.0 0.0 0.00 0.00 0.00 78 1007.9
20260509120506 46 321 0.0 0.0 0.00 0.00 0.00 79 1007.9
20260509120005 46 321 0.0 0.0 0.00 0.00 0.00 79 1007.9
20260509115506 45 321 0.0 0.0 0.00 0.00 0.00 80 1007.8
20260509115011 45 321 0.0 0.0 0.00 0.00 0.00 79 1007.7
20260509114503 45 321 0.0 0.0 0.00 0.00 0.00 79 1007.6
20260509114002 45 321 0.0 0.0 0.00 0.00 0.00 80 1007.6
20260509113503 45 321 0.0 0.0 0.00 0.00 0.00 79 1007.5
20260509113004 45 321 0.0 0.0 0.00 0.00 0.00 79 1007.6
20260509112504 45 321 0.0 0.0 0.00 0.00 0.00 78 1007.5
20260509112003 45 321 0.0 0.0 0.00 0.00 0.00 77 1007.5
20260509111508 45 321 0.0 0.0 0.00 0.00 0.00 76 1007.5
20260509111010 45 321 0.0 0.0 0.00 0.00 0.00 77 1007.4
20260509110502 45 321 0.0 0.0 0.00 0.00 0.00 78 1007.4
20260509110011 45 321 0.0 0.0 0.00 0.00 0.00 76 1007.4
20260509105503 45 321 0.0 0.0 0.00 0.00 0.00 76 1007.4
20260509105005 45 321 0.0 0.0 0.00 0.00 0.00 74 1007.5
20260509104523 46 321 0.0 0.0 0.00 0.00 0.00 74 1007.5
20260509104002 46 321 0.0 0.0 0.00 0.00 0.00 73 1007.6
20260509103505 46 321 0.0 0.0 0.00 0.00 0.00 72 1007.5
20260509103006 45 321 0.0 0.0 0.00 0.00 0.00 74 1007.5
20260509102505 45 321 0.0 0.0 0.00 0.00 0.00 74 1007.5
20260509102004 45 321 0.0 0.0 0.00 0.00 0.00 74 1007.4
20260509101504 46 321 0.0 0.0 0.00 0.00 0.00 74 1007.5
20260509101003 46 321 0.0 0.0 0.00 0.00 0.00 73 1007.4
20260509100504 46 321 0.0 0.0 0.00 0.00 0.00 73 1007.4
20260509100016 46 321 0.0 0.0 0.00 0.00 0.00 73 1007.4
20260509095504 46 321 0.0 0.0 0.00 0.00 0.00 72 1007.4
20260509095004 46 321 0.0 0.0 0.00 0.00 0.00 71 1007.4
20260509094508 47 321 0.0 0.0 0.00 0.00 0.00 70 1007.4
20260509094006 47 321 0.0 0.0 0.00 0.00 0.00 71 1007.4
20260509093503 47 321 0.0 0.0 0.00 0.00 0.00 70 1007.4
20260509093017 47 321 0.0 0.0 0.00 0.00 0.00 70 1007.4
20260509092508 47 321 0.0 0.0 0.00 0.00 0.00 70 1007.4
20260509092004 48 321 0.0 0.0 0.00 0.00 0.00 69 1007.4
20260509091513 48 321 0.0 0.0 0.00 0.00 0.00 69 1007.4
20260509091008 48 321 0.0 0.0 0.00 0.00 0.00 68 1007.4
20260509090504 48 321 0.0 0.0 0.00 0.00 0.00 67 1007.4
20260509090006 48 321 0.0 0.0 0.00 0.00 0.00 67 1007.4
20260509085503 48 321 0.0 0.0 0.00 0.00 0.00 67 1007.4
20260509085003 48 321 0.0 0.0 0.00 0.00 0.00 66 1007.4
20260509084509 49 321 0.0 0.0 0.00 0.00 0.00 66 1007.3
20260509084003 49 321 0.0 0.0 0.00 0.00 0.00 65 1007.2
20260509083509 49 321 0.0 0.0 0.00 0.00 0.00 67 1007.2
20260509083015 49 321 0.0 0.0 0.00 0.00 0.00 66 1007.2
20260509082503 49 321 0.0 0.0 0.00 0.00 0.00 65 1007.2
20260509082007 49 321 0.0 0.0 0.00 0.00 0.00 64 1007.3
20260509081512 50 321 0.0 0.0 0.00 0.00 0.00 64 1007.3
20260509081007 50 321 0.0 0.0 0.00 0.00 0.00 64 1007.3
20260509080507 50 321 0.0 0.0 0.00 0.00 0.00 63 1007.3
20260509080010 51 321 0.0 0.0 0.00 0.00 0.00 63 1007.2
20260509075506 51 321 0.0 0.0 0.00 0.00 0.00 62 1007.3
20260509075006 51 321 0.0 0.0 0.00 0.00 0.00 62 1007.4
20260509074508 51 321 0.0 0.0 0.00 0.00 0.00 61 1007.4
20260509074007 52 321 0.0 0.9 0.00 0.00 0.00 59 1007.4
20260509073503 52 321 0.0 0.9 0.00 0.00 0.00 60 1007.4
20260509073011 52 321 0.0 0.9 0.00 0.00 0.00 59 1007.4
20260509072507 52 321 0.0 0.0 0.00 0.00 0.00 60 1007.4
20260509072004 53 321 0.0 0.9 0.00 0.00 0.00 58 1007.4
20260509071506 53 321 0.0 0.9 0.00 0.00 0.00 59 1007.4
20260509071004 53 321 0.0 0.0 0.00 0.00 0.00 57 1007.4
20260509070507 53 321 0.0 0.0 0.00 0.00 0.00 57 1007.4
20260509070020 54 321 0.0 0.9 0.00 0.00 0.00 55 1007.5
20260509065511 54 321 0.0 0.9 0.00 0.00 0.00 54 1007.5
20260509065007 55 321 0.0 1.7 0.00 0.00 0.00 53 1007.5
20260509064528 55 321 0.0 1.7 0.00 0.00 0.00 53 1007.6
20260509064004 55 321 0.0 2.6 0.00 0.00 0.00 52 1007.6
20260509063506 56 321 0.0 2.6 0.00 0.00 0.00 51 1007.6
20260509063006 56 320 0.0 0.9 0.00 0.00 0.00 52 1007.7
20260509062508 56 320 0.0 0.9 0.00 0.00 0.00 52 1007.6
20260509062008 56 320 0.0 0.9 0.00 0.00 0.00 53 1007.7
20260509061532 56 320 0.0 0.9 0.00 0.00 0.00 53 1007.7
20260509061009 57 320 0.0 2.6 0.00 0.00 0.00 51 1007.6
20260509060507 57 320 0.0 2.6 0.00 0.00 0.00 50 1007.6
20260509060012 58 319 0.9 2.6 0.00 0.00 0.00 49 1007.7
20260509055507 58 309 0.9 2.6 0.00 0.00 0.00 49 1007.7
20260509055006 58 347 0.9 3.5 0.00 0.00 0.00 49 1007.7
20260509054511 59 348 0.9 3.5 0.00 0.00 0.00 49 1007.6
20260509054010 59 348 0.9 2.6 0.00 0.00 0.00 47 1007.6
20260509053507 59 340 1.7 3.5 0.00 0.00 0.00 46 1007.5
20260509053049 60 339 1.7 3.5 0.00 0.00 0.00 46 1007.5
20260509052507 60 330 1.7 4.3 0.00 0.00 0.00 46 1007.4
20260509052004 60 332 2.6 4.3 0.00 0.00 0.00 45 1007.4
20260509051527 60 322 2.6 4.3 0.00 0.00 0.00 45 1007.4
20260509051004 60 322 1.7 3.5 0.00 0.00 0.00 46 1007.4
20260509050507 59 292 0.9 2.6 0.00 0.00 0.00 46 1007.3
20260509050018 59 292 0.9 1.7 0.00 0.00 0.00 46 1007.3
20260509045505 59 292 0.9 1.7 0.00 0.00 0.00 47 1007.3
20260509045007 59 292 0.0 1.7 0.00 0.00 0.00 46 1007.2
20260509044524 59 292 0.9 1.7 0.00 0.00 0.00 46 1007.2
20260509044006 58 292 0.0 0.9 0.00 0.00 0.00 47 1007.2
20260509043509 58 292 0.0 0.9 0.00 0.00 0.00 50 1007.2
20260509043018 59 292 0.0 0.9 0.00 0.00 0.00 49 1007.2
20260509042512 59 292 0.0 0.9 0.00 0.00 0.00 50 1007.1
20260509042010 60 292 0.0 0.0 0.00 0.00 0.00 46 1007.2
20260509041517 60 292 0.0 0.0 0.00 0.00 0.00 45 1007.1
20260509041007 59 292 0.0 1.7 0.00 0.00 0.00 49 1007.1
20260509040511 59 292 0.0 1.7 0.00 0.00 0.00 48 1007.0
20260509040029 59 292 0.0 1.7 0.00 0.00 0.00 47 1007.0
20260509035502 59 292 0.0 1.7 0.00 0.00 0.00 48 1007.1
20260509035003 60 292 0.0 1.7 0.00 0.00 0.00 47 1007.1
20260509034506 60 291 0.0 0.0 0.00 0.00 0.00 46 1006.9
20260509034003 61 291 0.0 0.0 0.00 0.00 0.00 46 1006.9
20260509033506 62 291 0.0 0.0 0.00 0.00 0.00 40 1006.8
20260509033002 62 291 0.0 0.9 0.00 0.00 0.00 41 1006.8
20260509032503 62 291 0.0 0.9 0.00 0.00 0.00 45 1006.8
20260509032004 61 291 0.0 0.9 0.00 0.00 0.00 44 1006.8
20260509031505 61 292 0.0 0.9 0.00 0.00 0.00 47 1006.7
20260509031002 61 291 0.0 1.7 0.00 0.00 0.00 45 1006.7
20260509030509 61 290 0.0 1.7 0.00 0.00 0.00 47 1006.6
20260509030004 61 280 0.0 0.9 0.00 0.00 0.00 44 1006.5
20260509025503 62 280 0.0 0.9 0.00 0.00 0.00 41 1006.4
20260509025002 64 279 0.0 0.0 0.00 0.00 0.00 37 1006.3
20260509024504 64 279 0.0 0.0 0.00 0.00 0.00 36 1006.2
20260509024004 64 279 0.0 0.0 0.00 0.00 0.00 38 1006.2
20260509023504 64 279 0.0 0.0 0.00 0.00 0.00 35 1006.1
20260509023006 65 279 0.0 0.9 0.00 0.00 0.00 36 1006.0
20260509022505 66 279 0.0 0.9 0.00 0.00 0.00 35 1005.9
20260509022003 66 305 0.0 0.0 0.00 0.00 0.00 33 1005.9
20260509021508 67 305 0.0 0.0 0.00 0.00 0.00 33 1005.8
20260509021003 67 305 0.0 0.0 0.00 0.00 0.00 30 1005.7
20260509020504 67 305 0.0 0.0 0.00 0.00 0.00 30 1005.7
20260509020009 68 305 0.0 0.0 0.00 0.00 0.00 31 1005.6
20260509015504 68 305 0.0 0.9 0.00 0.00 0.00 32 1005.6
20260509015006 69 305 0.0 0.9 0.00 0.00 0.00 31 1005.6
20260509014508 69 305 0.0 0.9 0.00 0.00 0.00 31 1005.6
20260509014008 70 305 0.0 2.6 0.00 0.00 0.00 30 1005.6
20260509013502 70 305 0.9 3.5 0.00 0.00 0.00 29 1005.6
20260509013005 70 300 0.9 3.5 0.00 0.00 0.00 29 1005.5
20260509012502 71 296 0.9 2.6 0.00 0.00 0.00 29 1005.5
20260509012002 71 292 0.0 2.6 0.00 0.00 0.00 30 1005.5
20260509011509 71 337 0.0 2.6 0.00 0.00 0.00 30 1005.4
20260509011003 72 306 0.0 3.5 0.00 0.00 0.00 29 1005.4
20260509010503 72 297 0.9 4.3 0.00 0.00 0.00 30 1005.4
20260509010006 72 330 0.0 4.3 0.00 0.00 0.00 30 1005.3
20260509005505 72 306 1.7 3.5 0.00 0.00 0.00 31 1005.3
20260509005005 73 292 0.9 3.5 0.00 0.00 0.00 31 1005.3
20260509004501 73 326 0.9 6.1 0.00 0.00 0.00 32 1005.2
20260509004009 74 339 1.7 6.1 0.00 0.00 0.00 29 1005.2
20260509003507 74 302 1.7 7.0 0.00 0.00 0.00 30 1005.2
20260509003008 74 315 1.7 7.0 0.00 0.00 0.00 30 1005.2
20260509002505 74 329 3.5 7.0 0.00 0.00 0.00 31 1005.1
20260509002002 74 337 1.7 5.2 0.00 0.00 0.00 30 1005.0
20260509001510 73 296 0.9 3.5 0.00 0.00 0.00 35 1005.1
20260509001004 73 336 1.7 3.5 0.00 0.00 0.00 35 1005.1
20260509000509 72 346 0.0 2.6 0.00 0.00 0.00 38 1005.1
20260509000005 72 348 0.0 1.7 0.00 0.00 0.00 37 1005.2
20260508235502 72 348 0.0 2.6 0.00 0.00 0.00 39 1005.1
20260508235002 72 348 0.0 2.6 0.00 0.00 0.00 40 1005.2
20260508234506 71 349 0.0 2.6 0.00 0.00 0.00 43 1005.2
20260508234008 71 227 0.0 2.6 0.00 0.00 0.00 41 1005.2